N42J KFLL-KSAV

Flight info

Callsign N42J
Flight time N/A
Altitude VFR/030
Route DCT
Aircraft PC12/L-DOV/C

Departure

Time N/A
Airport Fort Lauderdale Hollywood International Airport (KFLL)

Arrival

Time 2026-05-03 23:30
Airport Savannah Hilton Head International Airport (KSAV)
Time Latitude Longitude Altitude Speed Heading
2026-05-03 22:48 30.49650 -81.67801 23 ft 0 kts 190°
2026-05-03 22:49 30.49644 -81.67807 23 ft 2 kts 261°
2026-05-03 22:49 30.49650 -81.67857 23 ft 5 kts 279°
2026-05-03 22:50 30.49653 -81.67883 23 ft 9 kts 279°
2026-05-03 22:50 30.49733 -81.67907 23 ft 18 kts
2026-05-03 22:50 30.49767 -81.67902 23 ft 6 kts
2026-05-03 22:50 30.49848 -81.67903 23 ft 16 kts 343°
2026-05-03 22:51 30.49988 -81.67955 23 ft 24 kts 339°
2026-05-03 22:51 30.50034 -81.68076 23 ft 22 kts 251°
2026-05-03 22:51 30.49979 -81.68256 23 ft 24 kts 250°
2026-05-03 22:51 30.49915 -81.68468 23 ft 30 kts 252°
2026-05-03 22:52 30.49844 -81.68697 23 ft 29 kts 251°
2026-05-03 22:52 30.49767 -81.68941 23 ft 34 kts 250°
2026-05-03 22:52 30.49687 -81.69210 23 ft 36 kts 251°
2026-05-03 22:52 30.49623 -81.69419 23 ft 28 kts 251°
2026-05-03 22:53 30.49554 -81.69641 23 ft 26 kts 250°
2026-05-03 22:53 30.49508 -81.69792 23 ft 21 kts 253°
2026-05-03 22:53 30.49507 -81.69933 20 ft 17 kts 330°
2026-05-03 22:53 30.49540 -81.69949 20 ft 0 kts 339°
2026-05-03 22:54 30.49542 -81.69950 20 ft 3 kts 339°
2026-05-03 22:54 30.49606 -81.69976 20 ft 15 kts 348°
2026-05-03 22:55 30.49646 -81.69919 21 ft 0 kts 69°
2026-05-03 22:55 30.49689 -81.69780 23 ft 55 kts 69°
2026-05-03 22:55 30.49899 -81.69112 50 ft 111 kts 70°
2026-05-03 22:55 30.50169 -81.68189 358 ft 130 kts 68°
2026-05-03 22:56 30.50537 -81.67213 794 ft 141 kts 65°
2026-05-03 22:56 30.50944 -81.66107 1144 ft 156 kts 67°
2026-05-03 22:56 30.51367 -81.64902 1489 ft 168 kts 68°
2026-05-03 22:56 30.51811 -81.63603 1834 ft 178 kts 67°
2026-05-03 22:57 30.52280 -81.62229 2181 ft 186 kts 67°
2026-05-03 22:57 30.52760 -81.60802 2429 ft 198 kts 67°
2026-05-03 22:57 30.53278 -81.59244 2481 ft 216 kts 68°
2026-05-03 22:57 30.53840 -81.57576 2491 ft 231 kts 64°
2026-05-03 22:58 30.55045 -81.56352 2520 ft 240 kts 20°
2026-05-03 22:58 30.56745 -81.56315 2520 ft 251 kts 351°
2026-05-03 22:58 30.58494 -81.56691 2490 ft 257 kts 349°
2026-05-03 22:58 30.60272 -81.57095 2486 ft 261 kts 350°
2026-05-03 22:59 30.62066 -81.57503 2487 ft 263 kts 349°
2026-05-03 22:59 30.63844 -81.57903 2483 ft 260 kts 350°
2026-05-03 22:59 30.65613 -81.58298 2483 ft 255 kts 350°
2026-05-03 22:59 30.67372 -81.58563 2476 ft 250 kts 359°
2026-05-03 23:00 30.69091 -81.58514 2475 ft 246 kts
2026-05-03 23:00 30.70770 -81.58248 2479 ft 243 kts 11°
2026-05-03 23:00 30.72427 -81.57845 2476 ft 241 kts 14°
2026-05-03 23:00 30.74043 -81.57355 2477 ft 239 kts 17°
2026-05-03 23:01 30.75655 -81.56800 2481 ft 238 kts 18°
2026-05-03 23:01 30.77231 -81.56217 2476 ft 238 kts 19°
2026-05-03 23:01 30.78793 -81.55615 2476 ft 237 kts 19°
2026-05-03 23:01 30.80371 -81.54984 2483 ft 236 kts 20°
2026-05-03 23:02 30.81923 -81.54354 2478 ft 236 kts 20°
2026-05-03 23:02 30.83454 -81.53725 2480 ft 236 kts 20°
2026-05-03 23:02 30.85005 -81.53085 2477 ft 235 kts 20°
2026-05-03 23:02 30.86565 -81.52435 2474 ft 235 kts 20°
2026-05-03 23:03 30.88100 -81.51795 2477 ft 235 kts 20°
2026-05-03 23:03 30.89639 -81.51150 2477 ft 235 kts 20°
2026-05-03 23:03 30.91200 -81.50495 2479 ft 235 kts 20°
2026-05-03 23:03 30.92734 -81.49852 2478 ft 236 kts 20°
2026-05-03 23:04 30.94273 -81.49206 2478 ft 236 kts 20°
2026-05-03 23:04 30.95822 -81.48554 2479 ft 236 kts 20°
2026-05-03 23:04 30.97377 -81.47900 2478 ft 236 kts 21°
2026-05-03 23:04 30.98916 -81.47253 2478 ft 236 kts 20°
2026-05-03 23:05 31.00460 -81.46605 2481 ft 236 kts 20°
2026-05-03 23:05 31.02012 -81.45950 2481 ft 236 kts 20°
2026-05-03 23:05 31.03564 -81.45297 2481 ft 235 kts 20°
2026-05-03 23:05 31.05096 -81.44617 2467 ft 234 kts 27°
2026-05-03 23:06 31.06164 -81.43271 2460 ft 230 kts 66°
2026-05-03 23:06 31.06288 -81.41433 2469 ft 230 kts 102°
2026-05-03 23:06 31.06111 -81.39630 2500 ft 227 kts 75°
2026-05-03 23:06 31.07035 -81.38219 2755 ft 219 kts 29°
2026-05-03 23:07 31.08496 -81.38030 3141 ft 216 kts 347°
2026-05-03 23:07 31.09961 -81.38514 3423 ft 217 kts 343°
2026-05-03 23:07 31.11437 -81.39027 3419 ft 228 kts 344°
2026-05-03 23:07 31.12948 -81.39531 3180 ft 226 kts 344°
2026-05-03 23:08 31.14477 -81.39932 3016 ft 220 kts 352°
2026-05-03 23:08 31.15972 -81.40079 2990 ft 209 kts 359°
2026-05-03 23:08 31.17390 -81.40052 2988 ft 199 kts
2026-05-03 23:08 31.18741 -81.39922 2986 ft 191 kts
2026-05-03 23:09 31.20027 -81.39726 2986 ft 184 kts
2026-05-03 23:09 31.21289 -81.39484 2990 ft 182 kts
2026-05-03 23:09 31.22571 -81.39211 2997 ft 195 kts 11°
2026-05-03 23:09 31.23955 -81.38877 3029 ft 203 kts 12°
2026-05-03 23:10 31.25335 -81.38519 3231 ft 202 kts 12°
2026-05-03 23:10 31.26723 -81.38146 3425 ft 206 kts 12°
2026-05-03 23:10 31.28128 -81.37755 3621 ft 209 kts 12°
2026-05-03 23:10 31.29544 -81.37351 3816 ft 212 kts 12°
2026-05-03 23:11 31.30994 -81.36932 4010 ft 214 kts 12°
2026-05-03 23:11 31.32454 -81.36505 4205 ft 216 kts 12°
2026-05-03 23:11 31.33899 -81.36079 4395 ft 217 kts 12°
2026-05-03 23:11 31.35403 -81.35633 4485 ft 224 kts 12°
2026-05-03 23:12 31.36932 -81.35181 4494 ft 232 kts 12°
2026-05-03 23:12 31.38516 -81.34708 4495 ft 238 kts 12°
2026-05-03 23:12 31.40160 -81.34215 4493 ft 243 kts 12°
2026-05-03 23:12 31.41800 -81.33725 4499 ft 246 kts 13°
2026-05-03 23:13 31.43472 -81.33223 4490 ft 249 kts 13°
2026-05-03 23:13 31.45161 -81.32716 4486 ft 251 kts 12°
2026-05-03 23:13 31.46880 -81.32201 4487 ft 252 kts 12°
2026-05-03 23:13 31.48570 -81.31696 4485 ft 253 kts 13°
2026-05-03 23:14 31.50277 -81.31184 4485 ft 253 kts 13°
2026-05-03 23:14 31.52000 -81.30666 4486 ft 254 kts 13°
2026-05-03 23:14 31.53699 -81.30157 4489 ft 254 kts 12°
2026-05-03 23:14 31.55438 -81.29634 4486 ft 254 kts 13°
2026-05-03 23:15 31.57141 -81.29123 4486 ft 254 kts 13°
2026-05-03 23:15 31.58862 -81.28607 4489 ft 254 kts 13°
2026-05-03 23:15 31.60578 -81.28092 4487 ft 254 kts 13°
2026-05-03 23:15 31.62296 -81.27575 4488 ft 255 kts 12°
2026-05-03 23:16 31.64007 -81.27058 4488 ft 255 kts 13°
2026-05-03 23:16 31.65730 -81.26527 4488 ft 255 kts 13°
2026-05-03 23:16 31.67442 -81.26000 4487 ft 255 kts 12°
2026-05-03 23:16 31.69156 -81.25474 4488 ft 255 kts 13°
2026-05-03 23:17 31.70843 -81.24796 4489 ft 255 kts 17°
2026-05-03 23:17 31.72513 -81.24103 4490 ft 255 kts 17°
2026-05-03 23:17 31.74197 -81.23407 4493 ft 255 kts 17°
2026-05-03 23:17 31.75879 -81.22714 4492 ft 256 kts 17°
2026-05-03 23:18 31.77566 -81.22023 4490 ft 256 kts 18°
2026-05-03 23:18 31.79244 -81.21330 4488 ft 256 kts 17°
2026-05-03 23:18 31.80914 -81.20645 4492 ft 256 kts 17°
2026-05-03 23:18 31.82599 -81.19952 4490 ft 256 kts 17°
2026-05-03 23:19 31.84280 -81.19259 4482 ft 256 kts 17°
2026-05-03 23:19 31.85977 -81.18559 4472 ft 255 kts 17°
2026-05-03 23:19 31.87633 -81.17877 4480 ft 255 kts 17°
2026-05-03 23:19 31.89311 -81.17185 4491 ft 255 kts 17°
2026-05-03 23:20 31.91002 -81.16489 4492 ft 256 kts 17°
2026-05-03 23:20 31.92687 -81.15794 4494 ft 256 kts 17°
2026-05-03 23:20 31.94361 -81.15102 4494 ft 257 kts 17°
2026-05-03 23:20 31.95989 -81.14411 4215 ft 240 kts 17°
2026-05-03 23:21 31.97589 -81.14186 3914 ft 225 kts 356°
2026-05-03 23:21 31.99119 -81.14281 3614 ft 215 kts 355°
2026-05-03 23:21 32.00592 -81.14407 3313 ft 206 kts 355°
2026-05-03 23:21 32.01985 -81.14537 3017 ft 200 kts 355°
2026-05-03 23:22 32.04168 -81.13232 2395 ft 185 kts 73°
2026-05-03 23:22 32.04081 -81.11789 2104 ft 177 kts 117°
2026-05-03 23:22 32.03416 -81.10642 2001 ft 162 kts 126°
2026-05-03 23:23 32.02772 -81.09644 1994 ft 144 kts 126°
2026-05-03 23:23 32.02224 -81.08779 2124 ft 133 kts 126°
2026-05-03 23:23 32.01708 -81.07834 1984 ft 141 kts 135°
2026-05-03 23:23 32.00809 -81.07461 1979 ft 139 kts 179°
2026-05-03 23:24 31.99923 -81.07868 1973 ft 141 kts 217°
2026-05-03 23:24 31.99477 -81.08880 1979 ft 143 kts 260°
2026-05-03 23:24 31.99504 -81.10049 1990 ft 142 kts 271°
2026-05-03 23:24 31.99588 -81.11207 1992 ft 141 kts 272°
2026-05-03 23:25 31.99678 -81.12357 1993 ft 140 kts 271°
2026-05-03 23:25 31.99839 -81.13483 1994 ft 140 kts 279°
2026-05-03 23:25 32.00055 -81.14616 1994 ft 140 kts 279°
2026-05-03 23:25 32.00266 -81.15715 1994 ft 139 kts 280°
2026-05-03 23:26 32.00477 -81.16840 1992 ft 139 kts 280°
2026-05-03 23:26 32.00680 -81.17950 1998 ft 139 kts 280°
2026-05-03 23:26 32.00879 -81.19074 1994 ft 139 kts 279°
2026-05-03 23:26 32.01234 -81.20109 1975 ft 139 kts 312°
2026-05-03 23:27 32.02038 -81.20717 1989 ft 137 kts 335°
2026-05-03 23:27 32.02896 -81.21219 1991 ft 137 kts 333°
2026-05-03 23:27 32.03817 -81.21506 1884 ft 143 kts 356°
2026-05-03 23:27 32.04794 -81.21359 1828 ft 138 kts 24°
2026-05-03 23:28 32.05669 -81.20928 1803 ft 135 kts 24°
2026-05-03 23:28 32.06594 -81.20558 1545 ft 132 kts 23°
2026-05-03 23:28 32.07440 -81.20264 1211 ft 122 kts 18°
2026-05-03 23:28 32.08244 -81.20075 887 ft 117 kts
2026-05-03 23:29 32.09032 -81.20013 583 ft 109 kts
2026-05-03 23:29 32.09798 -81.19997 424 ft 111 kts 359°
2026-05-03 23:29 32.10574 -81.20007 272 ft 109 kts
2026-05-03 23:29 32.11338 -81.20007 122 ft 107 kts
2026-05-03 23:30 32.12039 -81.20013 32 ft 86 kts
2026-05-03 23:30 32.12467 -81.20008 38 ft 25 kts 353°
2026-05-03 23:30 32.12535 -81.19950 40 ft 13 kts 102°
2026-05-03 23:30 32.12522 -81.19902 41 ft 0 kts 109°
2026-05-03 23:31 32.12520 -81.19896 41 ft 4 kts 109°
2026-05-03 23:31 32.12507 -81.19827 42 ft 12 kts 75°
2026-05-03 23:31 32.12521 -81.19692 45 ft 18 kts 89°
2026-05-03 23:31 32.12521 -81.19676 45 ft 0 kts 89°